PST,Max TemperatureF,Mean TemperatureF,Min TemperatureF,Max Dew PointF,MeanDew PointF,Min DewpointF,Max Humidity, Mean Humidity, Min Humidity, Max Sea Level PressureIn, Mean Sea Level PressureIn, Min Sea Level PressureIn, Max VisibilityMiles, Mean VisibilityMiles, Min VisibilityMiles, Max Wind SpeedMPH, Mean Wind SpeedMPH, Max Gust SpeedMPH,PrecipitationIn, CloudCover, Events, WindDirDegrees
2012-12-1,58,49,40,39,34,31,79,61,43,29.91,29.83,29.68,10,10,10,25,10,31,T,4,,186
2012-12-2,59,44,29,42,35,27,92,66,40,30.10,29.75,29.48,10,9,2,43,16,55,0.23,5,Rain,205
2012-12-3,49,36,23,34,29,22,92,67,42,30.25,30.19,30.12,10,10,10,16,4,23,0.00,2,,161
2012-12-4,47,44,41,44,39,30,92,73,53,30.22,30.16,30.09,10,10,8,18,6,23,0.14,8,Rain,192
2012-12-5,54,45,35,45,41,34,100,83,66,30.15,30.11,30.08,10,9,4,15,6,18,0.31,5,Rain,195
2012-12-6,52,40,28,41,35,27,100,80,59,30.16,30.09,30.01,10,7,0,14,4,18,0.00,5,Fog,178
2012-12-7,50,35,20,33,25,20,96,65,34,30.22,30.13,30.07,10,10,10,15,4,18,0.00,1,,172
2012-12-8,44,34,24,22,19,16,78,57,36,30.23,30.12,30.04,10,10,10,13,4,38,0.00,0,,310
2012-12-9,41,31,21,24,21,18,84,66,48,30.44,30.37,30.21,10,10,10,12,4,14,0.00,1,,247
2012-12-10,48,37,25,30,26,23,85,67,49,30.40,30.31,30.23,10,10,10,14,4,17,0.00,3,,182
2012-12-11,54,37,20,29,23,14,92,58,24,30.20,29.89,29.59,10,10,10,28,10,36,0.00,1,,198
2012-12-12,46,38,30,31,26,18,82,58,33,29.78,29.72,29.62,10,8,2,17,7,24,0.02,6,Snow,241
2012-12-13,36,33,30,32,30,28,100,91,82,29.87,29.81,29.77,10,7,2,9,4,12,0.07,8,Snow,287
2012-12-14,34,30,26,30,28,23,92,82,72,29.93,29.78,29.71,10,7,0,10,3,14,0.04,8,Fog-Snow,245
2012-12-15,35,31,26,27,24,22,92,74,56,29.96,29.91,29.84,10,9,2,18,8,22,0.02,7,Snow,178
2012-12-16,40,36,31,32,30,25,100,82,64,30.00,29.90,29.75,10,6,1,22,14,29,0.11,8,Snow,169
2012-12-17,50,40,29,37,28,20,76,61,46,29.90,29.78,29.66,10,10,10,40,18,53,T,2,Rain,249
2012-12-18,33,23,13,19,16,12,92,68,43,30.10,29.94,29.82,10,10,10,14,6,18,0.00,2,,316
2012-12-19,32,19,5,15,11,4,92,68,43,30.33,30.27,30.03,10,10,10,15,8,20,0.00,0,,176
2012-12-20,44,32,19,12,10,9,67,46,24,30.22,30.09,29.96,10,10,10,28,13,36,0.00,0,,155
2012-12-21,48,36,23,13,10,8,50,36,21,29.98,29.92,29.84,10,10,10,16,9,21,0.00,2,,158
2012-12-22,42,35,28,32,23,11,96,64,32,30.02,29.84,29.76,10,9,0,27,10,40,0.04,5,Fog-Snow,174
2012-12-23,39,35,30,32,28,24,89,74,59,30.04,29.89,29.79,10,10,10,18,12,21,T,8,Rain,173
2012-12-24,39,27,14,30,22,10,92,73,54,30.27,30.05,29.78,10,8,0,13,6,23,0.02,4,Fog-Rain-Snow,310
2012-12-25,31,22,13,23,19,9,92,73,53,30.25,29.95,29.75,10,4,1,18,7,18,0.22,7,Snow,65
2012-12-26,33,28,22,30,25,20,100,88,75,29.96,29.76,29.67,10,4,0,17,7,23,0.28,8,Fog-Snow,220
2012-12-27,33,16,-1,25,16,-4,92,82,72,30.31,30.12,29.96,10,9,0,10,5,28,T,5,Fog,271
2012-12-28,22,7,-8,16,3,-13,88,82,75,30.40,30.25,30.16,10,7,0,16,7,61,T,4,Fog-Snow,74
2012-12-29,25,20,15,20,16,10,92,86,80,30.22,30.07,29.98,10,3,1,14,6,55,0.06,8,Snow,49
2012-12-30,25,10,-5,18,12,-7,92,83,74,30.39,30.12,29.98,10,5,0,13,6,15,0.05,7,Fog-Snow,332
2012-12-31,17,2,-13,7,-7,-17,92,78,64,30.56,30.39,30.22,10,7,0,14,4,15,0.00,4,Fog,117